Regional Weather Roundup
Issued by NWS

Home | Current Version | Previous Version | Graphics & Text | Print | Product List | Glossary On
Versions: 1 2 3 4 5 6 7 8 9 10 11 12 13 14 15 16 17 18 19 20 21 22 23 24 25 26 27 28 29 30 31 32 33 34 35 36 37 38 39 40 41 42 43 44 45 46 47 48 49 50
689
ASUS43 KOAX 271410
RWRNE

WEATHER ROUNDUP FOR NEBRASKA
NATIONAL WEATHER SERVICE OMAHA NE
900 AM CDT SAT AUG 27 2016

NOTES: SATELLITE DATA IS BEING USED TO AUGMENT CLOUD COVER ABOVE
       12000 FEET.
       "FAIR" INDICATES FEW OR NO CLOUDS BELOW 12,000 FEET WITH NO
       SIGNIFICANT WEATHER AND/OR OBSTRUCTIONS TO VISIBILITY.

  * THESE STATIONS DO NOT REPORT WEATHER SUCH AS RAIN...SNOW OR FOG.

NEZ001>004-019>022-054>056-271500-
NEBRASKA PANHANDLE

CITY           SKY/WX    TMP DP  RH WIND       PRES   REMARKS
SCOTTSBLUFF    FOG       54  53  97 SE5       30.08R VSB 1/4
ALLIANCE       CLOUDY    55  55 100 S10       30.07R FOG
CHADRON        SUNNY     58  54  86 S9        30.04R
KIMBALL        SUNNY     54  54 100 CALM      30.13R
SIDNEY         FOG       52  52 100 SW3       30.11R VSB 1/4
$$

NEZ057>060-069>072-079>082-271500-
SOUTHWEST NEBRASKA

CITY           SKY/WX    TMP DP  RH WIND       PRES   REMARKS
NORTH PLATTE   PTSUNNY   56  54  93 NW3       30.07S
IMPERIAL       CLOUDY    56  54  93 SW3       30.10R
LEXINGTON      SUNNY     59  56  91 CALM      30.08S
MCCOOK         CLOUDY    57  55  93 CALM      30.09R
OGALLALA       CLOUDY    58  56  93 S3        30.08F
$$

NEZ005>010-023>029-035>040-094-271500-
NORTH CENTRAL NEBRASKA

CITY           SKY/WX    TMP DP  RH WIND       PRES   REMARKS
VALENTINE      SUNNY     59  55  87 S5        30.04R
AINSWORTH      PTSUNNY   58  58 100 W3        30.05R FOG
BROKEN BOW     CLOUDY    58  58 100 CALM      30.07R FOG
O`NEILL        FOG       61  60  96 SW6       30.06S VSB 1
ORD            CLOUDY    61  59  93 SW5       30.05R FOG
THEDFORD       CLOUDY    55  55  98 CALM      30.08F FOG
$$

NEZ041-046>049-061>064-073>077-083>087-271500-
SOUTH CENTRAL NEBRASKA

CITY           SKY/WX    TMP DP  RH WIND       PRES   REMARKS
GRAND ISLAND   SUNNY     63  60  90 W8        30.06R
AURORA         SUNNY     63  63 100 NW5       30.05S
HASTINGS       SUNNY     65  60  84 NW8       30.06S
HEBRON         SUNNY     67  66  97 N3        30.03S
HOLDREGE       SUNNY     61  58  91 CALM      30.08R
KEARNEY *      SUNNY     61  57  88 NW6       30.06S
YORK           CLOUDY    64  64 100 CALM      30.05R FOG
$$

NEZ011>018-030>034-042>045-271500-
NORTHEAST NEBRASKA

CITY           SKY/WX    TMP DP  RH WIND       PRES   REMARKS
NORFOLK        MOSUNNY   66  62  87 NW3       30.04R
ALBION         CLOUDY    64  62  94 CALM      30.06R FOG
BLAIR          FOG       67  66  97 CALM      30.03S VSB 1/2
FREMONT        CLOUDY    67  66  99 W5        30.04S FOG
TEKAMAH        CLOUDY    66  65  96 CALM      30.03S FOG
WAYNE          CLOUDY    65  64  96 CALM      30.04S
$$

NEZ050>053-065>068-078-088>093-271500-
SOUTHEAST NEBRASKA

CITY           SKY/WX    TMP DP  RH WIND       PRES   REMARKS
LINCOLN        PTSUNNY   71  67  87 N6        30.04R
OMAHA EPPLEY   CLOUDY    69  66  90 CALM      30.03R FOG
BEATRICE       CLOUDY    68  67  96 CALM      30.03S
FALLS CITY     PTSUNNY   71  68  90 NW5       30.02S
NEBRASKA CITY  CLOUDY    68  68 100 SW3       30.03F
PLATTSMOUTH    CLOUDY    69  69  99 SW3       30.02F
$$

NEZ044-045-051>053-067-271500-
OMAHA AREA

CITY           SKY/WX    TMP DP  RH WIND       PRES   REMARKS
OMAHA EPPLEY   CLOUDY    69  66  90 CALM      30.03R FOG
BLAIR          FOG       67  66  97 CALM      30.03S VSB 1/2
FREMONT        CLOUDY    67  66  99 W5        30.04S FOG
MILLARD        PTSUNNY   70  68  94 W3        30.02S
OFFUTT AFB     PTSUNNY   70  70 100 SW3       30.02R
PLATTSMOUTH    CLOUDY    69  69  99 SW3       30.02F
WAHOO          CLOUDY    67  66  96 CALM      30.04R FOG
$$




USA.gov is the U.S. government's official web portal to all federal, state and local government web resources and services.